This demonstration page uses our WeatherBlox Daily Observations layout. Learn more.

Left ArrowRight Arrow

Hourly Observations for December 6, 2019

Temp ( °F °C ) Dew Point ( °F °C ) Humidity (%) Winds ( mph kmh ) Pressure ( in mb ) Visibility ( mi km ) Precip ( " mm )
12:51 am 00:51 Clear 44 6.7 42 5.6 93 93 WSW 3 6 30.12 1020 10 16 N/A
1:51 am 01:51 Clear 43 6.1 41 5 93 93 N N/A 30.13 1020 10 16 N/A
2:51 am 02:51 Clear 42 5.6 40 4.4 92 92 N N/A 30.14 1021 10 16 N/A
3:51 am 03:51 Clear 45 7.2 40 4.4 83 83 N N/A 30.14 1021 10 16 N/A
4:51 am 04:51 Clear 41 5 39 3.9 93 93 NNE 5 7 30.16 1021 10 16 N/A
5:51 am 05:51 Clear 44 6.7 39 3.9 83 83 SE 6 9 30.18 1022 10 16 N/A
6:51 am 06:51 Clear 47 8.3 38 3.3 71 71 ESE 12 19 30.20 1023 10 16 N/A
7:51 am 07:51 Sunny 49 9.4 38 3.3 66 66 ESE 12 19 30.22 1023 10 16 N/A
8:51 am 08:51 Sunny 52 11.1 39 3.9 61 61 E 12 19 30.23 1024 10 16 N/A
9:51 am 09:51 Sunny 56 13.3 40 4.4 55 55 ESE 12 19 30.25 1024 10 16 N/A
10:51 am 10:51 Sunny 61 16.1 40 4.4 46 46 E 10 17 30.24 1024 10 16 N/A
11:51 am 11:51 Sunny 61 16.1 39 3.9 44 44 E 9 15 30.22 1023 10 16 N/A
12:51 pm 12:51 Sunny 63 17.2 39 3.9 41 41 E 5 7 30.19 1022 10 16 N/A
1:51 pm 13:51 Sunny 64 17.8 39 3.9 40 40 ESE 7 11 30.17 1022 10 16 N/A
2:51 pm 14:51 Sunny 66 18.9 40 4.4 39 39 VRB 6 9 30.15 1021 10 16 N/A
3:51 pm 15:51 Sunny 64 17.8 42 5.6 45 45 SSW 8 13 30.14 1021 10 16 N/A
4:51 pm 16:51 Mostly Sunny 62 16.7 43 6.1 50 50 SSE 3 6 30.15 1021 10 16 N/A
5:51 pm 17:51 Clear 59 15 44 6.7 58 58 N N/A 30.17 1022 10 16 N/A
6:51 pm 18:51 Clear 56 13.3 45 7.2 67 67 E 6 9 30.17 1022 10 16 N/A
7:51 pm 19:51 Clear 55 12.8 45 7.2 69 69 ESE 6 9 30.17 1022 10 16 N/A
8:51 pm 20:51 Clear 55 12.8 44 6.7 67 67 ESE 6 9 30.17 1022 10 16 N/A
9:51 pm 21:51 Clear 55 12.8 43 6.1 64 64 ESE 7 11 30.17 1022 10 16 N/A
10:51 pm 22:51 Clear 53 11.7 43 6.1 69 69 E 9 15 30.17 1022 10 16 N/A
11:51 pm 23:51 Clear 52 11.1 42 5.6 69 69 E 8 13 30.17 1022 10 16 N/A

Powered by AerisWeather